Location: *
(34.8620°S, 39.3380°E)
Time: 10:41:52
(UTC+00:00)

USA 234 - Pass Details

Date: 27 July 2021
Orbit: 1100 x 1108 km, 123.0° (Epoch: 20 September)

Event Time Altitude Azimuth Distance (km) Brightness Sun altitude
Rises 02:31:22 0° 145° (SE) 3,950 6.5 -22.4°
Reaches altitude 10° 02:34:13 10° 155° (SSE) 2,988 5.7 -21.8°
Maximum altitude 02:39:39 29° 211° (SSW) 1,934 4.2 -20.7°
Enters shadow 02:40:42 27° 226° (SW) 1,982 4.1 -20.5°
